Date,TemperatureHighF,TemperatureAvgF,TemperatureLowF,DewpointHighF,DewpointAvgF,DewpointLowF,HumidityHigh,HumidityAvg,HumidityLow,PressureMaxIn,PressureMinIn,WindSpeedMaxMPH,WindSpeedAvgMPH,GustSpeedMaxMPH,PrecipitationSumIn
2013-2-1,36.6,25.1,16.8,26.0,19.6,13.6,89,80,64,30.99,30.75,3,0,4,0.00
2013-2-2,35.9,25.6,17.2,23.7,18.2,11.4,85,74,61,31.04,30.90,3,0,6,0.00
2013-2-3,39.7,28.4,21.8,24.0,19.3,14.5,81,69,47,30.90,30.64,3,0,6,0.00
2013-2-4,38.5,25.4,15.7,21.9,16.6,10.7,82,70,51,30.79,30.70,2,0,5,0.00
2013-2-5,44.1,31.7,19.7,27.9,19.6,12.7,74,62,39,30.75,30.38,2,0,5,0.00
2013-2-6,44.3,34.7,22.8,32.6,24.6,14.5,90,67,47,30.59,30.33,6,1,9,0.00
2013-2-7,36.3,26.0,15.5,18.5,13.9,7.5,73,61,42,30.68,30.45,5,0,7,0.00
2013-2-8,43.6,32.7,19.3,30.6,23.3,15.3,93,70,45,30.45,30.08,17,2,29,0.14
2013-2-9,29.2,23.4,18.0,24.8,19.5,13.9,90,85,80,30.37,30.11,6,1,10,0.01
2013-2-10,28.8,22.8,13.1,20.7,18.1,10.0,91,82,65,30.52,30.36,5,1,9,0.01
2013-2-11,25.9,20.0,9.4,20.2,15.7,5.0,92,83,72,30.81,30.53,3,0,5,0.01
2013-2-12,24.5,16.3,4.8,18.1,10.0,1.0,85,76,66,31.03,30.82,3,0,7,0.00
2013-2-13,33.5,30.1,22.4,24.3,22.1,16.6,82,72,63,31.01,30.78,5,1,7,0.00
2013-2-14,38.6,29.2,21.5,27.4,23.0,17.9,90,78,57,30.91,30.75,3,0,7,0.00
2013-2-15,35.3,25.1,16.5,23.7,18.2,12.0,85,75,60,31.07,30.92,2,0,5,0.00
2013-2-16,40.3,27.3,16.1,22.2,17.2,11.9,86,67,45,31.07,30.60,2,0,3,0.00
2013-2-17,45.3,31.7,22.4,25.5,17.9,11.7,71,57,32,30.59,30.27,8,3,17,0.00
2013-2-18,33.0,22.6,11.4,15.9,10.0,5.0,75,59,34,30.69,30.52,3,1,6,0.00
2013-2-19,43.6,32.3,19.3,22.0,13.2,5.2,60,46,30,30.55,30.03,10,2,17,0.00
2013-2-20,41.1,34.5,30.2,29.1,22.4,18.0,89,62,44,30.12,29.94,7,2,13,0.00
2013-2-21,32.2,27.8,23.2,27.8,22.2,17.5,92,80,62,30.50,30.13,5,2,9,0.19
2013-2-22,31.5,22.1,11.9,19.8,14.8,7.1,86,73,58,30.69,30.51,5,1,8,0.00
2013-2-23,31.0,23.3,16.3,26.4,16.7,9.7,89,76,55,30.66,30.30,9,2,16,0.02
2013-2-24,29.6,22.6,13.5,17.3,15.0,8.5,89,73,55,30.82,30.49,7,2,10,0.00
2013-2-25,31.1,20.2,7.1,21.5,11.3,3.0,85,69,47,30.87,30.58,3,1,6,0.00
2013-2-26,29.8,23.5,13.9,22.6,16.2,5.9,90,74,58,30.86,30.58,7,2,10,0.00
2013-2-27,29.3,17.5,6.7,13.5,7.2,1.0,79,65,43,31.08,30.87,2,1,5,0.00
2013-2-28,37.0,23.9,9.9,20.0,12.3,3.8,77,62,46,31.13,31.05,3,1,5,0.00